Weather History for KPNE - January, 2013

Change the Weather History Date:

Wednesday, January 23, 2013

  Actual Average Record
Temperature  
Mean Temperature 14 °F -  
Max Temperature 19 °F 35 °F 64 °F (1999)
Min Temperature 10 °F 21 °F 7 °F (2014)
Degree Days  
Heating Degree Days 50    
Moisture  
Dew Point -1 °F    
Average Humidity 51    
Maximum Humidity 74    
Minimum Humidity 38    
Precipitation  
Precipitation 0.00 in - - ()
Sea Level Pressure  
Sea Level Pressure 30.26 in    
Wind  
Wind Speed 8 mph (WNW)    
Max Wind Speed 15 mph    
Max Gust Speed 23 mph    
Visibility 10 miles    
Events      
Averages and records for this station are not official NWS values.
T = Trace of Precipitation, MM = Missing Value Source: NWS Daily Summary

Daily Weather History Graph

Daily Weather History Graph

Search for Another Location

Airport or City:

Trip Planner

Search our weather history database for the weather conditions in past years. The results will help you decide how hot, cold, wet, or windy it might be!

Date:

Astronomy

Jan. 23, 2013 Rise Set
Actual Time 7:15 AM EST 5:08 PM EST
Civil Twilight 6:46 AM EST 5:37 PM EST
Nautical Twilight 6:13 AM EST 6:10 PM EST
Astronomical Twilight 5:41 AM EST 6:42 PM EST
Moon 2:16 PM EST (1/23) 4:25 AM EST (1/23)
Length of Visible Light 10h 51m
Length of Day
9h 52m
Waxing Gibbous, 89% of the Moon is Illuminated
Jan 23
Waxing Gibbous
Jan 26
Full
Feb 3
Last Quarter
Feb 10
New
Feb 17
First Quarter

Hourly Weather History & Observations

Time (EST) Temp. Windchill Dew Point Humidity Pressure Visibility Wind Dir Wind Speed Gust Speed Precip Events Conditions
12:54 AM 12.9 °F 0.7 °F -4.0 °F 47% 30.27 in 10.0 mi WNW 9.2 mph - N/A   Clear
1:54 AM 12.0 °F -1.3 °F -5.1 °F 46% 30.28 in 10.0 mi West 10.4 mph - N/A   Clear
2:54 AM 10.9 °F 4.7 °F -4.0 °F 51% 30.29 in 10.0 mi West 3.5 mph - N/A   Clear
3:54 AM 10.9 °F 2.9 °F -2.9 °F 54% 30.28 in 10.0 mi West 4.6 mph - N/A   Clear
4:54 AM 12.0 °F 1.5 °F -2.9 °F 51% 30.28 in 10.0 mi West 6.9 mph - N/A   Clear
5:54 AM 10.9 °F 0.2 °F -2.9 °F 54% 30.28 in 10.0 mi WNW 6.9 mph - N/A   Clear
6:54 AM 10.9 °F -1.8 °F -2.0 °F 56% 30.30 in 10.0 mi West 9.2 mph - N/A   Clear
7:54 AM 12.9 °F 0.7 °F -0.9 °F 54% 30.30 in 10.0 mi West 9.2 mph - N/A   Clear
8:54 AM 15.1 °F 2.5 °F -2.0 °F 47% 30.31 in 10.0 mi West 10.4 mph 20.7 mph N/A   Clear
9:54 AM 15.8 °F 1.4 °F -0.4 °F 49% 30.32 in 10.0 mi West 13.8 mph 20.7 mph N/A   Clear
10:54 AM 18.0 °F 3.6 °F -0.9 °F 44% 30.31 in 10.0 mi West 15.0 mph 23.0 mph N/A   Scattered Clouds
11:54 AM 19.0 °F 8.2 °F -2.0 °F 40% 30.28 in 10.0 mi WNW 9.2 mph 20.7 mph N/A   Overcast
12:54 PM 19.0 °F 5.0 °F -2.0 °F 40% 30.24 in 10.0 mi West 15.0 mph 20.7 mph N/A   Mostly Cloudy
1:54 PM 19.0 °F 5.6 °F -2.9 °F 38% 30.23 in 10.0 mi NW 13.8 mph 23.0 mph N/A   Overcast
2:54 PM 19.9 °F 7.3 °F -2.0 °F 38% 30.23 in 10.0 mi WNW 12.7 mph - N/A   Overcast
3:54 PM 18.0 °F 6.1 °F -2.0 °F 41% 30.23 in 10.0 mi WNW 10.4 mph - N/A   Scattered Clouds
4:54 PM 18.0 °F 5.4 °F -0.0 °F 45% 30.24 in 10.0 mi West 11.5 mph - N/A   Overcast
5:54 PM 17.1 °F 10.0 °F 1.0 °F 50% 30.25 in 10.0 mi WNW 4.6 mph - N/A   Clear
6:54 PM 17.1 °F - 1.0 °F 50% 30.24 in 10.0 mi Calm Calm - N/A   Clear
7:54 PM 16.0 °F - 1.0 °F 52% 30.23 in 10.0 mi Calm Calm - N/A   Clear
8:54 PM 14.0 °F - 1.9 °F 59% 30.22 in 10.0 mi Calm Calm - N/A   Clear
9:54 PM 12.9 °F - 3.9 °F 67% 30.23 in 10.0 mi Calm Calm - N/A   Partly Cloudy
10:54 PM 12.9 °F - 5.0 °F 71% 30.23 in 10.0 mi Calm Calm - N/A   Overcast
11:54 PM 14.0 °F - 7.0 °F 74% 30.21 in 10.0 mi Calm Calm - N/A   Overcast